Spirit of St Louis, MO

8:36 PM CDT on April 29, 2017 (GMT -0500)
Spirit Of Saint Louis

Weather History for KSUS - December, 2012

Change the Weather History Date:

Monday, December 3, 2012

  Actual Average Record
Temperature  
Mean Temperature 68 °F -  
Max Temperature 73 °F 47 °F 73 °F (1998)
Min Temperature 64 °F 29 °F 15 °F (2006)
Cooling Degree Days 4    
Growing Degree Days 18 (Base 50)    
Moisture  
Dew Point 57 °F    
Average Humidity 69    
Maximum Humidity 84    
Minimum Humidity 50    
Precipitation  
Precipitation 0.00 in - - ()
Sea Level Pressure  
Sea Level Pressure 29.92 in    
Wind  
Wind Speed 11 mph (South)    
Max Wind Speed 20 mph    
Max Gust Speed 30 mph    
Visibility 10 miles    
Events      
Averages and records for this station are not official NWS values.
T = Trace of Precipitation, MM = Missing Value Source: NWS Daily Summary

Daily Weather History Graph

Daily Weather History Graph

Search for Another Location

Airport or City:

Trip Planner

Search our weather history database for the weather conditions in past years. The results will help you decide how hot, cold, wet, or windy it might be!

Date:

Astronomy

Dec. 03, 2012 Rise Set
Actual Time 7:03 AM CST 4:41 PM CST
Civil Twilight 6:34 AM CST 5:10 PM CST
Nautical Twilight 6:01 AM CST 5:43 PM CST
Astronomical Twilight 5:29 AM CST 6:15 PM CST
Moon 9:26 PM CST (12/3) 10:28 AM CST (12/3)
Length of Visible Light 10h 36m
Length of Day
9h 37m
Waning Gibbous, 78% of the Moon is Illuminated
Dec 3
Waning Gibbous
Dec 6
Last Quarter
Dec 13
New
Dec 19
First Quarter
Dec 28
Full

Hourly Weather History & Observations

Time (CST) Temp. Dew Point Humidity Pressure Visibility Wind Dir Wind Speed Gust Speed Precip Events Conditions
12:54 AM 64.0 °F 59.0 °F 84% 29.97 in 10.0 mi South 11.5 mph 18.4 mph N/A   Clear
1:54 AM 64.0 °F 59.0 °F 84% 29.99 in 10.0 mi South 8.1 mph - N/A   Clear
2:54 AM 64.0 °F 59.0 °F 84% 29.98 in 10.0 mi South 10.4 mph 18.4 mph N/A   Clear
3:54 AM 64.0 °F 59.0 °F 84% 29.97 in 10.0 mi South 9.2 mph - N/A   Clear
4:54 AM 64.0 °F 59.0 °F 84% 29.95 in 10.0 mi South 10.4 mph - N/A   Clear
5:54 AM 64.9 °F 59.0 °F 81% 29.95 in 10.0 mi South 11.5 mph - N/A   Clear
6:54 AM 64.9 °F 59.0 °F 81% 29.94 in 10.0 mi South 11.5 mph 19.6 mph N/A   Mostly Cloudy
7:54 AM 64.9 °F 59.0 °F 81% 29.93 in 10.0 mi South 10.4 mph - N/A   Clear
8:54 AM 66.9 °F 59.0 °F 76% 29.93 in 10.0 mi South 12.7 mph 19.6 mph N/A   Scattered Clouds
9:54 AM 70.0 °F 59.0 °F 68% 29.94 in 10.0 mi South 11.5 mph 20.7 mph N/A   Clear
10:54 AM 72.0 °F 57.9 °F 61% 29.92 in 10.0 mi SSW 17.3 mph 29.9 mph N/A   Partly Cloudy
11:54 AM 73.9 °F 57.0 °F 55% 29.89 in 10.0 mi SSE 19.6 mph 25.3 mph N/A   Scattered Clouds
12:54 PM 73.9 °F 55.9 °F 53% 29.86 in 10.0 mi South 16.1 mph 27.6 mph N/A   Scattered Clouds
1:54 PM 73.0 °F 55.0 °F 53% 29.84 in 10.0 mi South 11.5 mph 24.2 mph N/A   Scattered Clouds
2:54 PM 73.9 °F 55.0 °F 52% 29.84 in 10.0 mi South 17.3 mph 29.9 mph N/A   Scattered Clouds
3:54 PM 73.9 °F 54.0 °F 50% 29.85 in 10.0 mi South 18.4 mph 26.5 mph N/A   Scattered Clouds
4:54 PM 71.1 °F 53.1 °F 53% 29.87 in 10.0 mi South 8.1 mph 18.4 mph N/A   Scattered Clouds
5:54 PM 71.1 °F 54.0 °F 55% 29.90 in 10.0 mi South 5.8 mph - N/A   Overcast
6:54 PM 68.0 °F 54.0 °F 61% 29.91 in 10.0 mi South 4.6 mph - N/A   Clear
7:54 PM 66.9 °F 55.9 °F 68% 29.92 in 10.0 mi South 6.9 mph - N/A   Clear
8:54 PM 66.9 °F 57.0 °F 70% 29.91 in 10.0 mi South 8.1 mph - N/A   Clear
9:54 PM 66.0 °F 55.9 °F 70% 29.91 in 10.0 mi South 9.2 mph - N/A   Clear
10:54 PM 66.0 °F 55.9 °F 70% 29.91 in 10.0 mi SSW 9.2 mph - N/A   Clear
11:54 PM 66.0 °F 55.9 °F 70% 29.90 in 10.0 mi SSW 9.2 mph 18.4 mph N/A   Clear